Weather History for KBMG - August, 2012

Change the Weather History Date:

Wednesday, August 8, 2012

  Actual Average Record
Temperature  
Mean Temperature 80 °F 74 °F  
Max Temperature 98 °F 85 °F 98 °F (2012)
Min Temperature 62 °F 63 °F 51 °F (1997)
Degree Days  
Heating Degree Days 0 0  
Month to date heating degree days 0 0  
Since 1 June heating degree days 22 17  
Since 1 July heating degree days 0 2  
Cooling Degree Days 15 9  
Month to date cooling degree days 106 72  
Year to date cooling degree days 1068 638  
Since 1 June cooling degree days 867 556  
Growing Degree Days 30 (Base 50)    
Moisture  
Dew Point 58 °F    
Average Humidity 54    
Maximum Humidity 84    
Minimum Humidity 24    
Precipitation  
Precipitation 0.06 in 0.09 in 0.25 in (2013)
Month to date precipitation 0.11 0.90  
Year to date precipitation 13.52 30.57  
Sea Level Pressure  
Sea Level Pressure 29.94 in    
Wind  
Wind Speed 6 mph (West)    
Max Wind Speed 16 mph    
Max Gust Speed 21 mph    
Visibility 10 miles    
Events Rain , Thunderstorm    
T = Trace of Precipitation, MM = Missing Value Source: NWS Daily Summary

Daily Weather History Graph

Daily Weather History Graph

Search for Another Location

Airport or City:

Trip Planner

Search our weather history database for the weather conditions in past years. The results will help you decide how hot, cold, wet, or windy it might be!

Date:

Astronomy

Aug. 08, 2012 Rise Set
Actual Time 6:53 AM EDT 8:49 PM EDT
Civil Twilight 6:24 AM EDT 9:18 PM EDT
Nautical Twilight 5:48 AM EDT 9:54 PM EDT
Astronomical Twilight 5:10 AM EDT 10:32 PM EDT
Moon No Moon Rise 1:34 PM EDT (8/8)
Length of Visible Light 14h 54m
Length of Day
13h 56m
Waning Gibbous, 61% of the Moon is Illuminated
Aug 8
Waning Gibbous
Aug 9
Last Quarter
Aug 17
New
Aug 24
First Quarter
Aug 31
Full

Hourly Weather History & Observations

Time (EDT) Temp. Heat Index Dew Point Humidity Pressure Visibility Wind Dir Wind Speed Gust Speed Precip Events Conditions
12:53 AM 69.1 °F - 57.0 °F 65% 29.95 in 10.0 mi Calm Calm - N/A   Clear
1:53 AM 68.0 °F - 57.0 °F 68% 29.95 in 10.0 mi Calm Calm - N/A   Clear
2:53 AM 64.9 °F - 57.9 °F 78% 29.94 in 10.0 mi Calm Calm - N/A   Clear
3:53 AM 66.0 °F - 57.0 °F 73% 29.94 in 10.0 mi Calm Calm - N/A   Clear
4:53 AM 63.0 °F - 57.0 °F 81% 29.94 in 10.0 mi Calm Calm - N/A   Clear
5:53 AM 63.0 °F - 57.0 °F 81% 29.94 in 10.0 mi Calm Calm - N/A   Clear
6:53 AM 64.9 °F - 55.9 °F 73% 29.96 in 10.0 mi Calm Calm - N/A   Clear
7:53 AM 68.0 °F - 59.0 °F 73% 29.97 in 10.0 mi Calm Calm - N/A   Clear
8:53 AM 79.0 °F - 55.9 °F 45% 29.98 in 10.0 mi West 5.8 mph - N/A   Clear
9:53 AM 84.0 °F 82.6 °F 54.0 °F 35% 29.98 in 10.0 mi WSW 12.7 mph 18.4 mph N/A   Clear
10:53 AM 87.1 °F 85.3 °F 55.0 °F 33% 29.98 in 10.0 mi West 12.7 mph 17.3 mph N/A   Clear
11:53 AM 91.0 °F 89.7 °F 57.0 °F 32% 29.98 in 10.0 mi West 8.1 mph - N/A   Clear
12:53 PM 91.9 °F 90.0 °F 55.0 °F 29% 29.97 in 10.0 mi West 12.7 mph 19.6 mph N/A   Clear
1:53 PM 93.9 °F 92.6 °F 57.0 °F 29% 29.96 in 10.0 mi WSW 9.2 mph 16.1 mph N/A   Clear
2:53 PM 96.1 °F 94.5 °F 55.9 °F 26% 29.94 in 10.0 mi WNW 9.2 mph 16.1 mph N/A   Clear
3:53 PM 97.0 °F 95.0 °F 55.0 °F 24% 29.92 in 10.0 mi West 13.8 mph 19.6 mph N/A   Partly Cloudy
4:53 PM 97.0 °F 94.6 °F 54.0 °F 23% 29.90 in 10.0 mi WSW 12.7 mph 17.3 mph N/A   Clear
5:53 PM 96.1 °F 93.8 °F 54.0 °F 24% 29.88 in 10.0 mi WNW 9.2 mph - N/A   Clear
6:53 PM 93.9 °F 92.2 °F 55.9 °F 28% 29.87 in 10.0 mi West 8.1 mph - N/A   Clear
7:53 PM 89.1 °F 88.0 °F 57.9 °F 35% 29.88 in 10.0 mi West 3.5 mph - N/A   Scattered Clouds
8:53 PM 84.0 °F 84.0 °F 60.1 °F 44% 29.88 in 10.0 mi West 3.5 mph - N/A   Mostly Cloudy
9:53 PM 81.0 °F 81.9 °F 62.1 °F 52% 29.91 in 10.0 mi WNW 4.6 mph - 0.02 in   Overcast
10:02 PM 80.6 °F 81.8 °F 62.6 °F 54% 29.94 in 10.0 mi WNW 5.8 mph - N/A Thunderstorm Overcast
10:53 PM 73.0 °F - 68.0 °F 84% 29.91 in 10.0 mi South 4.6 mph - 0.04 in Rain Light Rain
11:53 PM 72.0 °F - 70.0 °F 93% 29.91 in 7.0 mi North 3.5 mph - N/A   Clear